owner,sensor,date,latitude,longitude,vertical_datum,mass_concentration_of_oxygen_in_sea_water,qcFlag 
DISL,ioos:station:DISL:DISL:1,2013-12-01T00:00:00Z,30.2513,-88.0778,2.385,8.91,1111122 
DISL,ioos:station:DISL:DISL:1,2013-12-01T00:30:00Z,30.2513,-88.0778,2.395,9.41,1111122 
DISL,ioos:station:DISL:DISL:1,2013-12-01T01:00:00Z,30.2513,-88.0778,2.427,9.99,1111122 
DISL,ioos:station:DISL:DISL:1,2013-12-01T01:30:00Z,30.2513,-88.0778,2.467,10.89,1111122 
DISL,ioos:station:DISL:DISL:1,2013-12-01T02:00:00Z,30.2513,-88.0778,2.472,10.92,1111122 
DISL,ioos:station:DISL:DISL:1,2013-12-01T02:30:00Z,30.2513,-88.0778,2.472,10.82,1111122 
DISL,ioos:station:DISL:DISL:1,2013-12-01T03:00:00Z,30.2513,-88.0778,2.465,10.81,1111122 
DISL,ioos:station:DISL:DISL:1,2013-12-01T03:30:00Z,30.2513,-88.0778,2.45,10.73,1111122 
DISL,ioos:station:DISL:DISL:1,2013-12-01T04:00:00Z,30.2513,-88.0778,2.438,10.76,1111122 
DISL,ioos:station:DISL:DISL:1,2013-12-01T04:30:00Z,30.2513,-88.0778,2.409,10.8,1111122 
DISL,ioos:station:DISL:DISL:1,2013-12-01T05:00:00Z,30.2513,-88.0778,2.401,10.78,1111122 
DISL,ioos:station:DISL:DISL:1,2013-12-01T05:30:00Z,30.2513,-88.0778,2.357,10.73,1111122 
DISL,ioos:station:DISL:DISL:1,2013-12-01T06:00:00Z,30.2513,-88.0778,2.337,10.78,1111122 
DISL,ioos:station:DISL:DISL:1,2013-12-01T06:30:00Z,30.2513,-88.0778,2.291,10.7,1111122 
DISL,ioos:station:DISL:DISL:1,2013-12-01T07:00:00Z,30.2513,-88.0778,2.261,11.14,1111122 
DISL,ioos:station:DISL:DISL:1,2013-12-01T07:30:00Z,30.2513,-88.0778,2.239,11.32,1111122 
DISL,ioos:station:DISL:DISL:1,2013-12-01T08:00:00Z,30.2513,-88.0778,2.214,11.5,1111122 
DISL,ioos:station:DISL:DISL:1,2013-12-01T08:30:00Z,30.2513,-88.0778,2.194,11.48,1111122 
DISL,ioos:station:DISL:DISL:1,2013-12-01T09:00:00Z,30.2513,-88.0778,2.16,11.4,1111122 
DISL,ioos:station:DISL:DISL:1,2013-12-01T09:30:00Z,30.2513,-88.0778,2.157,11.45,1111122 
DISL,ioos:station:DISL:DISL:1,2013-12-01T10:00:00Z,30.2513,-88.0778,2.114,11.42,1111122 
DISL,ioos:station:DISL:DISL:1,2013-12-01T10:30:00Z,30.2513,-88.0778,2.094,11.33,1111122 
DISL,ioos:station:DISL:DISL:1,2013-12-01T11:00:00Z,30.2513,-88.0778,2.086,11.3,1111122 
DISL,ioos:station:DISL:DISL:1,2013-12-01T11:30:00Z,30.2513,-88.0778,2.155,11.33,1111122 
DISL,ioos:station:DISL:DISL:1,2013-12-01T12:00:00Z,30.2513,-88.0778,2.08,11.32,1111122 
DISL,ioos:station:DISL:DISL:1,2013-12-01T12:30:00Z,30.2513,-88.0778,2.052,11.33,1111122 
DISL,ioos:station:DISL:DISL:1,2013-12-01T13:00:00Z,30.2513,-88.0778,2.078,11.3,1111122 
DISL,ioos:station:DISL:DISL:1,2013-12-01T13:30:00Z,30.2513,-88.0778,2.07,11.28,1111122 
DISL,ioos:station:DISL:DISL:1,2013-12-01T14:00:00Z,30.2513,-88.0778,2.108,11.29,1111122 
DISL,ioos:station:DISL:DISL:1,2013-12-01T14:30:00Z,30.2513,-88.0778,2.092,11.31,1111122 
DISL,ioos:station:DISL:DISL:1,2013-12-01T15:00:00Z,30.2513,-88.0778,2.146,11.39,1111122 
DISL,ioos:station:DISL:DISL:1,2013-12-01T15:30:00Z,30.2513,-88.0778,2.124,11.03,1111122 
DISL,ioos:station:DISL:DISL:1,2013-12-01T16:00:00Z,30.2513,-88.0778,2.124,10.61,1111122 
DISL,ioos:station:DISL:DISL:1,2013-12-01T16:30:00Z,30.2513,-88.0778,2.108,10.66,1111122 
DISL,ioos:station:DISL:DISL:1,2013-12-01T17:00:00Z,30.2513,-88.0778,2.115,10.81,1111122 
DISL,ioos:station:DISL:DISL:1,2013-12-01T17:30:00Z,30.2513,-88.0778,2.14,11.2,1111122 
DISL,ioos:station:DISL:DISL:1,2013-12-01T18:00:00Z,30.2513,-88.0778,2.153,11.48,1111122 
DISL,ioos:station:DISL:DISL:1,2013-12-01T18:30:00Z,30.2513,-88.0778,2.18,11.6,1111122 
DISL,ioos:station:DISL:DISL:1,2013-12-01T19:00:00Z,30.2513,-88.0778,2.194,11.66,1111122 
DISL,ioos:station:DISL:DISL:1,2013-12-01T19:30:00Z,30.2513,-88.0778,2.193,10.83,1111122 
DISL,ioos:station:DISL:DISL:1,2013-12-01T20:00:00Z,30.2513,-88.0778,2.185,10.76,1111122 
DISL,ioos:station:DISL:DISL:1,2013-12-01T20:30:00Z,30.2513,-88.0778,2.248,10.87,1111122 
DISL,ioos:station:DISL:DISL:1,2013-12-01T21:00:00Z,30.2513,-88.0778,2.268,10.62,1111122 
DISL,ioos:station:DISL:DISL:1,2013-12-01T21:30:00Z,30.2513,-88.0778,2.296,10.87,1111122 
DISL,ioos:station:DISL:DISL:1,2013-12-01T22:00:00Z,30.2513,-88.0778,2.335,10.78,1111122 
DISL,ioos:station:DISL:DISL:1,2013-12-01T22:30:00Z,30.2513,-88.0778,2.371,10.62,1111122 
DISL,ioos:station:DISL:DISL:1,2013-12-01T23:00:00Z,30.2513,-88.0778,2.389,10.54,1111122 
DISL,ioos:station:DISL:DISL:1,2013-12-01T23:30:00Z,30.2513,-88.0778,2.414,10.48,1111122 
DISL,ioos:station:DISL:DISL:1,2013-12-02T00:00:00Z,30.2513,-88.0778,2.464,10.45,1111122 
DISL,ioos:station:DISL:DISL:1,2013-12-02T00:30:00Z,30.2513,-88.0778,2.485,10.62,1111122 
DISL,ioos:station:DISL:DISL:1,2013-12-02T01:00:00Z,30.2513,-88.0778,2.51,10.26,1111122 
DISL,ioos:station:DISL:DISL:1,2013-12-02T01:30:00Z,30.2513,-88.0778,2.523,10.72,1111122 
DISL,ioos:station:DISL:DISL:1,2013-12-02T02:00:00Z,30.2513,-88.0778,2.544,10.57,1111122 
DISL,ioos:station:DISL:DISL:1,2013-12-02T02:30:00Z,30.2513,-88.0778,2.545,11.17,1111122 
DISL,ioos:station:DISL:DISL:1,2013-12-02T03:00:00Z,30.2513,-88.0778,2.562,11.7,1111122 
DISL,ioos:station:DISL:DISL:1,2013-12-02T03:30:00Z,30.2513,-88.0778,2.564,11.65,1111122 
DISL,ioos:station:DISL:DISL:1,2013-12-02T04:00:00Z,30.2513,-88.0778,2.54,11.75,1111122 
DISL,ioos:station:DISL:DISL:1,2013-12-02T04:30:00Z,30.2513,-88.0778,2.519,11.72,1111122 
DISL,ioos:station:DISL:DISL:1,2013-12-02T05:00:00Z,30.2513,-88.0778,2.455,11.64,1111122 
DISL,ioos:station:DISL:DISL:1,2013-12-02T05:30:00Z,30.2513,-88.0778,2.451,11.61,1111122 
DISL,ioos:station:DISL:DISL:1,2013-12-02T06:00:00Z,30.2513,-88.0778,2.413,11.61,1111122 
DISL,ioos:station:DISL:DISL:1,2013-12-02T06:30:00Z,30.2513,-88.0778,2.366,11.51,1111122 
DISL,ioos:station:DISL:DISL:1,2013-12-02T07:00:00Z,30.2513,-88.0778,2.325,11.4,1111122 
DISL,ioos:station:DISL:DISL:1,2013-12-02T07:30:00Z,30.2513,-88.0778,2.285,11.69,1111122 
DISL,ioos:station:DISL:DISL:1,2013-12-02T08:00:00Z,30.2513,-88.0778,2.25,11.45,1111122 
DISL,ioos:station:DISL:DISL:1,2013-12-02T08:30:00Z,30.2513,-88.0778,2.22,11.48,1111122 
DISL,ioos:station:DISL:DISL:1,2013-12-02T09:00:00Z,30.2513,-88.0778,2.157,11.56,1111122 
DISL,ioos:station:DISL:DISL:1,2013-12-02T09:30:00Z,30.2513,-88.0778,2.118,11.6,1111122 
DISL,ioos:station:DISL:DISL:1,2013-12-02T10:00:00Z,30.2513,-88.0778,2.094,11.6,1111122 
DISL,ioos:station:DISL:DISL:1,2013-12-02T10:30:00Z,30.2513,-88.0778,2.079,11.58,1111122 
DISL,ioos:station:DISL:DISL:1,2013-12-02T11:00:00Z,30.2513,-88.0778,2.051,11.56,1111122 
DISL,ioos:station:DISL:DISL:1,2013-12-02T11:30:00Z,30.2513,-88.0778,2.013,11.56,1111122 
DISL,ioos:station:DISL:DISL:1,2013-12-02T12:00:00Z,30.2513,-88.0778,2.007,11.53,1111122 
DISL,ioos:station:DISL:DISL:1,2013-12-02T12:30:00Z,30.2513,-88.0778,1.986,11.48,1111122 
DISL,ioos:station:DISL:DISL:1,2013-12-02T13:00:00Z,30.2513,-88.0778,1.97,11.5,1111122 
DISL,ioos:station:DISL:DISL:1,2013-12-02T13:30:00Z,30.2513,-88.0778,1.937,11.54,1111122 
DISL,ioos:station:DISL:DISL:1,2013-12-02T14:00:00Z,30.2513,-88.0778,1.943,11.64,1111122 
DISL,ioos:station:DISL:DISL:1,2013-12-02T14:30:00Z,30.2513,-88.0778,1.949,11.79,1111122 
DISL,ioos:station:DISL:DISL:1,2013-12-02T15:00:00Z,30.2513,-88.0778,1.927,11.75,1111122 
DISL,ioos:station:DISL:DISL:1,2013-12-02T15:30:00Z,30.2513,-88.0778,1.947,11.84,1111122 
DISL,ioos:station:DISL:DISL:1,2013-12-02T16:00:00Z,30.2513,-88.0778,1.966,11.93,1111122 
DISL,ioos:station:DISL:DISL:1,2013-12-02T16:30:00Z,30.2513,-88.0778,1.966,11.99,1111122 
DISL,ioos:station:DISL:DISL:1,2013-12-02T17:00:00Z,30.2513,-88.0778,1.982,11.74,1111122 
DISL,ioos:station:DISL:DISL:1,2013-12-02T17:30:00Z,30.2513,-88.0778,1.976,11.84,1111122 
DISL,ioos:station:DISL:DISL:1,2013-12-02T18:00:00Z,30.2513,-88.0778,2.004,12.06,1111122 
DISL,ioos:station:DISL:DISL:1,2013-12-02T18:30:00Z,30.2513,-88.0778,2.021,12.21,1111122 
DISL,ioos:station:DISL:DISL:1,2013-12-02T19:00:00Z,30.2513,-88.0778,2.018,12.49,1111122 
DISL,ioos:station:DISL:DISL:1,2013-12-02T19:30:00Z,30.2513,-88.0778,2.058,12.63,1111122 
DISL,ioos:station:DISL:DISL:1,2013-12-02T20:00:00Z,30.2513,-88.0778,2.055,12.79,1111122 
DISL,ioos:station:DISL:DISL:1,2013-12-02T20:30:00Z,30.2513,-88.0778,2.084,11.68,1111122 
DISL,ioos:station:DISL:DISL:1,2013-12-02T21:00:00Z,30.2513,-88.0778,2.15,11.64,1111122 
DISL,ioos:station:DISL:DISL:1,2013-12-02T21:30:00Z,30.2513,-88.0778,2.155,11.67,1111122 
DISL,ioos:station:DISL:DISL:1,2013-12-02T22:00:00Z,30.2513,-88.0778,2.188,11.33,1111122 
DISL,ioos:station:DISL:DISL:1,2013-12-02T22:30:00Z,30.2513,-88.0778,2.227,11.06,1111122 
DISL,ioos:station:DISL:DISL:1,2013-12-02T23:00:00Z,30.2513,-88.0778,2.267,11.47,1111122 
DISL,ioos:station:DISL:DISL:1,2013-12-02T23:30:00Z,30.2513,-88.0778,2.314,11.41,1111122 
DISL,ioos:station:DISL:DISL:1,2013-12-03T00:00:00Z,30.2513,-88.0778,2.357,11.5,1111122 
DISL,ioos:station:DISL:DISL:1,2013-12-03T00:30:00Z,30.2513,-88.0778,2.409,11.63,1111122 
DISL,ioos:station:DISL:DISL:1,2013-12-03T01:00:00Z,30.2513,-88.0778,2.439,11.42,1111122 
DISL,ioos:station:DISL:DISL:1,2013-12-03T01:30:00Z,30.2513,-88.0778,2.473,11.32,1111122 
DISL,ioos:station:DISL:DISL:1,2013-12-03T02:00:00Z,30.2513,-88.0778,2.502,11.46,1111122 
DISL,ioos:station:DISL:DISL:1,2013-12-03T02:30:00Z,30.2513,-88.0778,2.54,11.92,1111122 
DISL,ioos:station:DISL:DISL:1,2013-12-03T03:00:00Z,30.2513,-88.0778,2.547,11.66,1111122 
DISL,ioos:station:DISL:DISL:1,2013-12-03T03:30:00Z,30.2513,-88.0778,2.56,12.16,1111122 
DISL,ioos:station:DISL:DISL:1,2013-12-03T04:00:00Z,30.2513,-88.0778,2.586,11.56,1111122 
DISL,ioos:station:DISL:DISL:1,2013-12-03T04:30:00Z,30.2513,-88.0778,2.604,11.98,1111122 
DISL,ioos:station:DISL:DISL:1,2013-12-03T05:00:00Z,30.2513,-88.0778,2.563,12.21,1111122 
DISL,ioos:station:DISL:DISL:1,2013-12-03T05:30:00Z,30.2513,-88.0778,2.528,12.21,1111122 
DISL,ioos:station:DISL:DISL:1,2013-12-03T06:00:00Z,30.2513,-88.0778,2.498,12.16,1111122 
DISL,ioos:station:DISL:DISL:1,2013-12-03T06:30:00Z,30.2513,-88.0778,2.461,12.12,1111122 
DISL,ioos:station:DISL:DISL:1,2013-12-03T07:00:00Z,30.2513,-88.0778,2.414,12.06,1111122 
DISL,ioos:station:DISL:DISL:1,2013-12-03T07:30:00Z,30.2513,-88.0778,2.388,12.01,1111122 
DISL,ioos:station:DISL:DISL:1,2013-12-03T08:00:00Z,30.2513,-88.0778,2.35,11.57,1111122 
DISL,ioos:station:DISL:DISL:1,2013-12-03T08:30:00Z,30.2513,-88.0778,2.305,10.99,1111122 
DISL,ioos:station:DISL:DISL:1,2013-12-03T09:00:00Z,30.2513,-88.0778,2.258,10.4,1111122 
DISL,ioos:station:DISL:DISL:1,2013-12-03T09:30:00Z,30.2513,-88.0778,2.214,10.24,1111122 
DISL,ioos:station:DISL:DISL:1,2013-12-03T10:00:00Z,30.2513,-88.0778,2.188,10.11,1111122 
DISL,ioos:station:DISL:DISL:1,2013-12-03T10:30:00Z,30.2513,-88.0778,2.14,10.14,1111122 
DISL,ioos:station:DISL:DISL:1,2013-12-03T11:00:00Z,30.2513,-88.0778,2.116,10.41,1111122 
DISL,ioos:station:DISL:DISL:1,2013-12-03T11:30:00Z,30.2513,-88.0778,2.093,10.54,1111122 
DISL,ioos:station:DISL:DISL:1,2013-12-03T12:00:00Z,30.2513,-88.0778,2.073,10.52,1111122 
DISL,ioos:station:DISL:DISL:1,2013-12-03T12:30:00Z,30.2513,-88.0778,2.052,10.85,1111122 
DISL,ioos:station:DISL:DISL:1,2013-12-03T13:00:00Z,30.2513,-88.0778,2.045,11.03,1111122 
DISL,ioos:station:DISL:DISL:1,2013-12-03T13:30:00Z,30.2513,-88.0778,2.005,11.03,1111122 
DISL,ioos:station:DISL:DISL:1,2013-12-03T14:00:00Z,30.2513,-88.0778,1.986,11.12,1111122 
DISL,ioos:station:DISL:DISL:1,2013-12-03T14:30:00Z,30.2513,-88.0778,1.978,11.27,1111122 
DISL,ioos:station:DISL:DISL:1,2013-12-03T15:00:00Z,30.2513,-88.0778,1.973,11.34,1111122 
DISL,ioos:station:DISL:DISL:1,2013-12-03T15:30:00Z,30.2513,-88.0778,1.983,11.52,1111122 
DISL,ioos:station:DISL:DISL:1,2013-12-03T16:00:00Z,30.2513,-88.0778,1.985,11.59,1111122 
DISL,ioos:station:DISL:DISL:1,2013-12-03T16:30:00Z,30.2513,-88.0778,1.995,11.49,1111122 
DISL,ioos:station:DISL:DISL:1,2013-12-03T17:00:00Z,30.2513,-88.0778,1.989,11.36,1111122 
DISL,ioos:station:DISL:DISL:1,2013-12-03T17:30:00Z,30.2513,-88.0778,1.994,11.31,1111122 
DISL,ioos:station:DISL:DISL:1,2013-12-03T18:00:00Z,30.2513,-88.0778,1.999,11.31,1111122 
DISL,ioos:station:DISL:DISL:1,2013-12-03T18:30:00Z,30.2513,-88.0778,2.019,11.35,1111122 
DISL,ioos:station:DISL:DISL:1,2013-12-03T19:00:00Z,30.2513,-88.0778,2.022,11.59,1111122 
DISL,ioos:station:DISL:DISL:1,2013-12-03T19:30:00Z,30.2513,-88.0778,2.037,11.65,1111122 
DISL,ioos:station:DISL:DISL:1,2013-12-03T20:00:00Z,30.2513,-88.0778,2.048,11.72,1111122 
DISL,ioos:station:DISL:DISL:1,2013-12-03T20:30:00Z,30.2513,-88.0778,2.067,11.55,1111122 
DISL,ioos:station:DISL:DISL:1,2013-12-03T21:00:00Z,30.2513,-88.0778,2.093,11.63,1111122 
DISL,ioos:station:DISL:DISL:1,2013-12-03T21:30:00Z,30.2513,-88.0778,2.115,11.43,1111122 
DISL,ioos:station:DISL:DISL:1,2013-12-03T22:00:00Z,30.2513,-88.0778,2.162,11.68,1111122 
DISL,ioos:station:DISL:DISL:1,2013-12-03T22:30:00Z,30.2513,-88.0778,2.17,11.06,1111122 
DISL,ioos:station:DISL:DISL:1,2013-12-03T23:00:00Z,30.2513,-88.0778,2.193,10.92,1111122 
DISL,ioos:station:DISL:DISL:1,2013-12-03T23:30:00Z,30.2513,-88.0778,2.233,11.0,1111122 
DISL,ioos:station:DISL:DISL:1,2013-12-04T00:00:00Z,30.2513,-88.0778,2.275,11.05,1111122 
DISL,ioos:station:DISL:DISL:1,2013-12-04T00:30:00Z,30.2513,-88.0778,2.31,10.99,1111122 
DISL,ioos:station:DISL:DISL:1,2013-12-04T01:00:00Z,30.2513,-88.0778,2.353,11.04,1111122 
DISL,ioos:station:DISL:DISL:1,2013-12-04T01:30:00Z,30.2513,-88.0778,2.393,10.91,1111122 
DISL,ioos:station:DISL:DISL:1,2013-12-04T02:00:00Z,30.2513,-88.0778,2.425,11.08,1111122 
DISL,ioos:station:DISL:DISL:1,2013-12-04T02:30:00Z,30.2513,-88.0778,2.451,10.94,1111122 
DISL,ioos:station:DISL:DISL:1,2013-12-04T03:00:00Z,30.2513,-88.0778,2.472,10.9,1111122 
DISL,ioos:station:DISL:DISL:1,2013-12-04T03:30:00Z,30.2513,-88.0778,2.481,10.76,1111122 
DISL,ioos:station:DISL:DISL:1,2013-12-04T04:00:00Z,30.2513,-88.0778,2.493,10.64,1111122 
DISL,ioos:station:DISL:DISL:1,2013-12-04T04:30:00Z,30.2513,-88.0778,2.506,10.59,1111122 
DISL,ioos:station:DISL:DISL:1,2013-12-04T05:00:00Z,30.2513,-88.0778,2.489,10.51,1111122 
DISL,ioos:station:DISL:DISL:1,2013-12-04T05:30:00Z,30.2513,-88.0778,2.488,10.41,1111122 
DISL,ioos:station:DISL:DISL:1,2013-12-04T06:00:00Z,30.2513,-88.0778,2.463,10.44,1111122 
DISL,ioos:station:DISL:DISL:1,2013-12-04T06:30:00Z,30.2513,-88.0778,2.448,9.84,1111122 
DISL,ioos:station:DISL:DISL:1,2013-12-04T07:00:00Z,30.2513,-88.0778,2.42,9.86,1111122 
DISL,ioos:station:DISL:DISL:1,2013-12-04T07:30:00Z,30.2513,-88.0778,2.383,9.38,1111122 
DISL,ioos:station:DISL:DISL:1,2013-12-04T08:00:00Z,30.2513,-88.0778,2.35,9.45,1111122 
DISL,ioos:station:DISL:DISL:1,2013-12-04T08:30:00Z,30.2513,-88.0778,2.316,9.59,1111122 
DISL,ioos:station:DISL:DISL:1,2013-12-04T09:00:00Z,30.2513,-88.0778,2.276,9.78,1111122 
DISL,ioos:station:DISL:DISL:1,2013-12-04T09:30:00Z,30.2513,-88.0778,2.237,9.91,1111122 
DISL,ioos:station:DISL:DISL:1,2013-12-04T10:00:00Z,30.2513,-88.0778,2.216,9.74,1111122 
DISL,ioos:station:DISL:DISL:1,2013-12-04T10:30:00Z,30.2513,-88.0778,2.19,9.72,1111122 
DISL,ioos:station:DISL:DISL:1,2013-12-04T11:00:00Z,30.2513,-88.0778,2.156,9.59,1111122 
DISL,ioos:station:DISL:DISL:1,2013-12-04T11:30:00Z,30.2513,-88.0778,2.138,10.28,1111122 
DISL,ioos:station:DISL:DISL:1,2013-12-04T12:00:00Z,30.2513,-88.0778,2.122,10.56,1111122 
DISL,ioos:station:DISL:DISL:1,2013-12-04T12:30:00Z,30.2513,-88.0778,2.106,10.9,1111122 
DISL,ioos:station:DISL:DISL:1,2013-12-04T13:00:00Z,30.2513,-88.0778,2.097,11.37,1111122 
DISL,ioos:station:DISL:DISL:1,2013-12-04T13:30:00Z,30.2513,-88.0778,2.081,11.77,1111122 
DISL,ioos:station:DISL:DISL:1,2013-12-04T14:00:00Z,30.2513,-88.0778,2.069,12.24,1111122 
DISL,ioos:station:DISL:DISL:1,2013-12-04T14:30:00Z,30.2513,-88.0778,2.043,12.43,1111122 
DISL,ioos:station:DISL:DISL:1,2013-12-04T15:00:00Z,30.2513,-88.0778,2.04,12.73,1111122 
DISL,ioos:station:DISL:DISL:1,2013-12-04T15:30:00Z,30.2513,-88.0778,2.024,12.82,1111122 
DISL,ioos:station:DISL:DISL:1,2013-12-04T16:00:00Z,30.2513,-88.0778,2.019,12.89,1111122 
DISL,ioos:station:DISL:DISL:1,2013-12-04T16:30:00Z,30.2513,-88.0778,2.002,12.94,1111122 
DISL,ioos:station:DISL:DISL:1,2013-12-04T17:00:00Z,30.2513,-88.0778,2.014,12.9,1111122 
DISL,ioos:station:DISL:DISL:1,2013-12-04T17:30:00Z,30.2513,-88.0778,2.002,12.44,1111122 
DISL,ioos:station:DISL:DISL:1,2013-12-04T18:00:00Z,30.2513,-88.0778,2.024,12.49,1111122 
DISL,ioos:station:DISL:DISL:1,2013-12-04T18:30:00Z,30.2513,-88.0778,2.005,11.42,1111122 
DISL,ioos:station:DISL:DISL:1,2013-12-04T19:00:00Z,30.2513,-88.0778,2.018,11.28,1111122 
DISL,ioos:station:DISL:DISL:1,2013-12-04T19:30:00Z,30.2513,-88.0778,2.024,10.96,1111122 
DISL,ioos:station:DISL:DISL:1,2013-12-04T20:00:00Z,30.2513,-88.0778,2.042,10.95,1111122 
DISL,ioos:station:DISL:DISL:1,2013-12-04T20:30:00Z,30.2513,-88.0778,2.069,11.3,1111122 
DISL,ioos:station:DISL:DISL:1,2013-12-04T21:00:00Z,30.2513,-88.0778,2.093,12.15,1111122 
DISL,ioos:station:DISL:DISL:1,2013-12-04T21:30:00Z,30.2513,-88.0778,2.127,12.31,1111122 
DISL,ioos:station:DISL:DISL:1,2013-12-04T22:00:00Z,30.2513,-88.0778,2.16,12.24,1111122 
DISL,ioos:station:DISL:DISL:1,2013-12-04T22:30:00Z,30.2513,-88.0778,2.177,12.04,1111122 
DISL,ioos:station:DISL:DISL:1,2013-12-04T23:00:00Z,30.2513,-88.0778,2.193,11.58,1111122 
DISL,ioos:station:DISL:DISL:1,2013-12-04T23:30:00Z,30.2513,-88.0778,2.247,11.28,1111122 
DISL,ioos:station:DISL:DISL:1,2013-12-05T00:00:00Z,30.2513,-88.0778,2.27,10.48,1111122 
DISL,ioos:station:DISL:DISL:1,2013-12-05T00:30:00Z,30.2513,-88.0778,2.298,10.5,1111122 
DISL,ioos:station:DISL:DISL:1,2013-12-05T01:00:00Z,30.2513,-88.0778,2.328,10.42,1111122 
DISL,ioos:station:DISL:DISL:1,2013-12-05T01:30:00Z,30.2513,-88.0778,2.36,10.56,1111122 
DISL,ioos:station:DISL:DISL:1,2013-12-05T02:00:00Z,30.2513,-88.0778,2.389,10.61,1111122 
DISL,ioos:station:DISL:DISL:1,2013-12-05T02:30:00Z,30.2513,-88.0778,2.415,10.68,1111122 
DISL,ioos:station:DISL:DISL:1,2013-12-05T03:00:00Z,30.2513,-88.0778,2.443,10.49,1111122 
DISL,ioos:station:DISL:DISL:1,2013-12-05T03:30:00Z,30.2513,-88.0778,2.475,10.31,1111122 
DISL,ioos:station:DISL:DISL:1,2013-12-05T04:00:00Z,30.2513,-88.0778,2.485,10.23,1111122 
DISL,ioos:station:DISL:DISL:1,2013-12-05T04:30:00Z,30.2513,-88.0778,2.499,10.22,1111122 
DISL,ioos:station:DISL:DISL:1,2013-12-05T05:00:00Z,30.2513,-88.0778,2.502,10.21,1111122 
DISL,ioos:station:DISL:DISL:1,2013-12-05T05:30:00Z,30.2513,-88.0778,2.496,10.19,1111122 
DISL,ioos:station:DISL:DISL:1,2013-12-05T06:00:00Z,30.2513,-88.0778,2.483,10.21,1111122 
DISL,ioos:station:DISL:DISL:1,2013-12-05T06:30:00Z,30.2513,-88.0778,2.48,10.21,1111122 
DISL,ioos:station:DISL:DISL:1,2013-12-05T07:00:00Z,30.2513,-88.0778,2.451,10.16,1111122 
DISL,ioos:station:DISL:DISL:1,2013-12-05T07:30:00Z,30.2513,-88.0778,2.422,10.15,1111122 
DISL,ioos:station:DISL:DISL:1,2013-12-05T08:00:00Z,30.2513,-88.0778,2.395,10.1,1111122 
DISL,ioos:station:DISL:DISL:1,2013-12-05T08:30:00Z,30.2513,-88.0778,2.349,10.09,1111122 
DISL,ioos:station:DISL:DISL:1,2013-12-05T09:00:00Z,30.2513,-88.0778,2.31,10.13,1111122 
DISL,ioos:station:DISL:DISL:1,2013-12-05T09:30:00Z,30.2513,-88.0778,2.28,10.48,1111122 
DISL,ioos:station:DISL:DISL:1,2013-12-05T10:00:00Z,30.2513,-88.0778,2.266,10.92,1111122 
DISL,ioos:station:DISL:DISL:1,2013-12-05T10:30:00Z,30.2513,-88.0778,2.251,10.69,1111122 
DISL,ioos:station:DISL:DISL:1,2013-12-05T11:00:00Z,30.2513,-88.0778,2.233,10.38,1111122 
DISL,ioos:station:DISL:DISL:1,2013-12-05T11:30:00Z,30.2513,-88.0778,2.215,10.91,1111122 
DISL,ioos:station:DISL:DISL:1,2013-12-05T12:00:00Z,30.2513,-88.0778,2.184,11.25,1111122 
DISL,ioos:station:DISL:DISL:1,2013-12-05T12:30:00Z,30.2513,-88.0778,2.153,11.47,1111122 
DISL,ioos:station:DISL:DISL:1,2013-12-05T13:00:00Z,30.2513,-88.0778,2.125,11.59,1111122 
DISL,ioos:station:DISL:DISL:1,2013-12-05T13:30:00Z,30.2513,-88.0778,2.091,11.51,1111122 
DISL,ioos:station:DISL:DISL:1,2013-12-05T14:00:00Z,30.2513,-88.0778,2.074,11.52,1111122 
DISL,ioos:station:DISL:DISL:1,2013-12-05T14:30:00Z,30.2513,-88.0778,2.061,11.57,1111122 
DISL,ioos:station:DISL:DISL:1,2013-12-05T15:00:00Z,30.2513,-88.0778,2.037,11.67,1111122 
DISL,ioos:station:DISL:DISL:1,2013-12-05T15:30:00Z,30.2513,-88.0778,2.024,11.86,1111122 
DISL,ioos:station:DISL:DISL:1,2013-12-05T16:00:00Z,30.2513,-88.0778,2.0,12.2,1111122 
DISL,ioos:station:DISL:DISL:1,2013-12-05T16:30:00Z,30.2513,-88.0778,1.984,12.28,1111122 
DISL,ioos:station:DISL:DISL:1,2013-12-05T17:00:00Z,30.2513,-88.0778,1.989,12.35,1111122 
DISL,ioos:station:DISL:DISL:1,2013-12-05T17:30:00Z,30.2513,-88.0778,1.972,12.42,1111122 
DISL,ioos:station:DISL:DISL:1,2013-12-05T18:00:00Z,30.2513,-88.0778,1.976,12.51,1111122 
DISL,ioos:station:DISL:DISL:1,2013-12-05T18:30:00Z,30.2513,-88.0778,1.985,12.45,1111122 
DISL,ioos:station:DISL:DISL:1,2013-12-05T19:00:00Z,30.2513,-88.0778,1.992,12.3,1111122 
DISL,ioos:station:DISL:DISL:1,2013-12-05T19:30:00Z,30.2513,-88.0778,1.989,11.94,1111122 
DISL,ioos:station:DISL:DISL:1,2013-12-05T20:00:00Z,30.2513,-88.0778,2.011,11.52,1111122 
DISL,ioos:station:DISL:DISL:1,2013-12-05T20:30:00Z,30.2513,-88.0778,2.031,11.36,1111122 
DISL,ioos:station:DISL:DISL:1,2013-12-05T21:00:00Z,30.2513,-88.0778,2.052,11.26,1111122 
DISL,ioos:station:DISL:DISL:1,2013-12-05T21:30:00Z,30.2513,-88.0778,2.071,11.23,1111122 
DISL,ioos:station:DISL:DISL:1,2013-12-05T22:00:00Z,30.2513,-88.0778,2.097,11.67,1111122 
DISL,ioos:station:DISL:DISL:1,2013-12-05T22:30:00Z,30.2513,-88.0778,2.136,12.14,1111122 
DISL,ioos:station:DISL:DISL:1,2013-12-05T23:00:00Z,30.2513,-88.0778,2.147,12.16,1111122 
DISL,ioos:station:DISL:DISL:1,2013-12-05T23:30:00Z,30.2513,-88.0778,2.178,11.98,1111122 
DISL,ioos:station:DISL:DISL:1,2013-12-06T00:00:00Z,30.2513,-88.0778,2.209,11.68,1111122 
DISL,ioos:station:DISL:DISL:1,2013-12-06T00:30:00Z,30.2513,-88.0778,2.22,11.25,1111122 
DISL,ioos:station:DISL:DISL:1,2013-12-06T01:00:00Z,30.2513,-88.0778,2.263,10.39,1111122 
DISL,ioos:station:DISL:DISL:1,2013-12-06T01:30:00Z,30.2513,-88.0778,2.295,10.47,1111122 
DISL,ioos:station:DISL:DISL:1,2013-12-06T02:00:00Z,30.2513,-88.0778,2.324,10.61,1111122 
DISL,ioos:station:DISL:DISL:1,2013-12-06T02:30:00Z,30.2513,-88.0778,2.347,10.41,1111122 
DISL,ioos:station:DISL:DISL:1,2013-12-06T03:00:00Z,30.2513,-88.0778,2.382,10.29,1111122 
DISL,ioos:station:DISL:DISL:1,2013-12-06T03:30:00Z,30.2513,-88.0778,2.404,10.31,1111122 
DISL,ioos:station:DISL:DISL:1,2013-12-06T04:00:00Z,30.2513,-88.0778,2.429,10.23,1111122 
DISL,ioos:station:DISL:DISL:1,2013-12-06T04:30:00Z,30.2513,-88.0778,2.443,10.03,1111122 
DISL,ioos:station:DISL:DISL:1,2013-12-06T05:00:00Z,30.2513,-88.0778,2.45,9.79,1111122 
DISL,ioos:station:DISL:DISL:1,2013-12-06T05:30:00Z,30.2513,-88.0778,2.452,9.6,1111122 
DISL,ioos:station:DISL:DISL:1,2013-12-06T06:00:00Z,30.2513,-88.0778,2.444,9.47,1111122 
DISL,ioos:station:DISL:DISL:1,2013-12-06T06:30:00Z,30.2513,-88.0778,2.424,9.36,1111122 
DISL,ioos:station:DISL:DISL:1,2013-12-06T07:00:00Z,30.2513,-88.0778,2.415,9.3,1111122 
DISL,ioos:station:DISL:DISL:1,2013-12-06T07:30:00Z,30.2513,-88.0778,2.41,9.14,1111122 
DISL,ioos:station:DISL:DISL:1,2013-12-06T08:00:00Z,30.2513,-88.0778,2.408,9.19,1111122 
DISL,ioos:station:DISL:DISL:1,2013-12-06T08:30:00Z,30.2513,-88.0778,2.421,9.55,1111122 
DISL,ioos:station:DISL:DISL:1,2013-12-06T09:00:00Z,30.2513,-88.0778,2.421,9.47,1111122 
DISL,ioos:station:DISL:DISL:1,2013-12-06T09:30:00Z,30.2513,-88.0778,2.403,9.42,1111122 
DISL,ioos:station:DISL:DISL:1,2013-12-06T10:00:00Z,30.2513,-88.0778,2.369,9.32,1111122 
DISL,ioos:station:DISL:DISL:1,2013-12-06T10:30:00Z,30.2513,-88.0778,2.319,9.15,1111122 
DISL,ioos:station:DISL:DISL:1,2013-12-06T11:00:00Z,30.2513,-88.0778,2.277,9.07,1111122 
DISL,ioos:station:DISL:DISL:1,2013-12-06T11:30:00Z,30.2513,-88.0778,2.254,9.93,1111122 
DISL,ioos:station:DISL:DISL:1,2013-12-06T12:00:00Z,30.2513,-88.0778,2.246,9.81,1111122 
DISL,ioos:station:DISL:DISL:1,2013-12-06T12:30:00Z,30.2513,-88.0778,2.231,9.67,1111122 
DISL,ioos:station:DISL:DISL:1,2013-12-06T13:00:00Z,30.2513,-88.0778,2.235,9.62,1111122 
DISL,ioos:station:DISL:DISL:1,2013-12-06T13:30:00Z,30.2513,-88.0778,2.185,10.26,1111122 
DISL,ioos:station:DISL:DISL:1,2013-12-06T14:00:00Z,30.2513,-88.0778,2.159,10.55,1111122 